Time,TemperatureF,DewpointF,PressureIn,WindDirection,WindDirectionDegrees,WindSpeedMPH,WindSpeedGustMPH,Humidity,HourlyPrecipIn,Conditions,Clouds,dailyrainin,SoftwareType,DateUTC
2013-02-14 00:02:00,37.0,24.0,29.91,WSW,252,1.0,5.0,59,0.00,,,0.00,,2013-02-14 06:02:00,
2013-02-14 00:11:00,37.0,24.0,29.92,WSW,254,0.0,4.0,60,0.00,,,0.00,,2013-02-14 06:11:00,
2013-02-14 00:21:00,37.0,24.0,29.92,WSW,254,0.0,4.0,60,0.00,,,0.00,,2013-02-14 06:21:00,
2013-02-14 00:31:00,36.0,24.0,29.92,WSW,242,1.0,5.0,62,0.00,,,0.00,,2013-02-14 06:31:00,
2013-02-14 00:42:00,36.0,24.0,29.92,WSW,242,1.0,5.0,62,0.00,,,0.00,,2013-02-14 06:42:00,
2013-02-14 00:51:00,36.0,25.0,29.92,WSW,245,0.0,5.0,63,0.00,,,0.00,,2013-02-14 06:51:00,
2013-02-14 01:01:00,36.0,25.0,29.93,West,259,0.0,4.0,64,0.00,,,0.00,,2013-02-14 07:01:00,
2013-02-14 01:11:00,36.0,25.0,29.93,SW,234,0.0,4.0,65,0.00,,,0.00,,2013-02-14 07:11:00,
2013-02-14 01:21:00,36.0,25.0,29.93,SW,234,0.0,4.0,65,0.00,,,0.00,,2013-02-14 07:21:00,
2013-02-14 01:32:00,35.0,25.0,29.93,WSW,257,2.0,7.0,66,0.00,,,0.00,,2013-02-14 07:32:00,
2013-02-14 01:41:00,35.0,25.0,29.93,WSW,257,2.0,7.0,66,0.00,,,0.00,,2013-02-14 07:41:00,
2013-02-14 01:51:00,35.0,25.0,29.93,SW,236,0.0,5.0,67,0.00,,,0.00,,2013-02-14 07:51:00,
2013-02-14 02:01:00,35.0,25.0,29.93,WSW,240,0.0,4.0,67,0.00,,,0.00,,2013-02-14 08:01:00,
2013-02-14 02:11:00,35.0,25.0,29.93,WSW,240,0.0,4.0,67,0.00,,,0.00,,2013-02-14 08:11:00,
2013-02-14 02:21:00,34.0,25.0,29.93,WSW,244,0.0,2.0,68,0.00,,,0.00,,2013-02-14 08:21:00,
2013-02-14 02:32:00,34.0,25.0,29.93,WSW,242,0.0,3.0,68,0.00,,,0.00,,2013-02-14 08:32:00,
2013-02-14 02:43:00,34.0,25.0,29.93,WSW,242,0.0,3.0,68,0.00,,,0.00,,2013-02-14 08:43:00,
2013-02-14 02:52:00,34.0,25.0,29.94,WSW,257,0.0,4.0,68,0.00,,,0.00,,2013-02-14 08:52:00,
2013-02-14 03:02:00,34.0,25.0,29.94,WSW,241,0.0,5.0,68,0.00,,,0.00,,2013-02-14 09:02:00,
2013-02-14 03:11:00,34.0,24.0,29.94,WSW,253,0.0,4.0,67,0.00,,,0.00,,2013-02-14 09:11:00,
2013-02-14 03:21:00,34.0,24.0,29.94,WSW,253,0.0,4.0,67,0.00,,,0.00,,2013-02-14 09:21:00,
2013-02-14 03:31:00,34.0,24.0,29.94,WSW,253,0.0,2.0,67,0.00,,,0.00,,2013-02-14 09:31:00,
2013-02-14 03:42:00,34.0,24.0,29.94,WSW,253,0.0,2.0,67,0.00,,,0.00,,2013-02-14 09:42:00,
2013-02-14 03:51:00,34.0,24.0,29.94,WSW,253,0.0,2.0,67,0.00,,,0.00,,2013-02-14 09:51:00,
2013-02-14 04:02:00,33.0,24.0,29.95,WSW,252,0.0,4.0,69,0.00,,,0.00,,2013-02-14 10:02:00,
2013-02-14 04:11:00,33.0,24.0,29.94,West,261,0.0,5.0,69,0.00,,,0.00,,2013-02-14 10:11:00,
2013-02-14 04:21:00,33.0,24.0,29.94,West,261,0.0,5.0,69,0.00,,,0.00,,2013-02-14 10:21:00,
2013-02-14 04:31:00,32.0,23.0,29.96,WSW,250,0.0,5.0,70,0.00,,,0.00,,2013-02-14 10:31:00,
2013-02-14 04:42:00,32.0,23.0,29.96,WSW,250,0.0,5.0,70,0.00,,,0.00,,2013-02-14 10:42:00,
2013-02-14 04:52:00,32.0,23.0,29.97,West,279,0.0,5.0,69,0.00,,,0.00,,2013-02-14 10:52:00,
2013-02-14 05:02:00,32.0,23.0,29.97,West,278,1.0,4.0,70,0.00,,,0.00,,2013-02-14 11:02:00,
2013-02-14 05:11:00,32.0,23.0,29.97,West,277,0.0,1.0,70,0.00,,,0.00,,2013-02-14 11:11:00,
2013-02-14 05:21:00,32.0,23.0,29.97,West,277,0.0,1.0,70,0.00,,,0.00,,2013-02-14 11:21:00,
2013-02-14 05:32:00,31.0,23.0,29.98,West,277,0.0,5.0,71,0.00,,,0.00,,2013-02-14 11:32:00,
2013-02-14 05:42:00,31.0,23.0,29.98,West,277,0.0,5.0,71,0.00,,,0.00,,2013-02-14 11:42:00,
2013-02-14 05:52:00,31.0,23.0,29.99,West,276,0.0,4.0,71,0.00,,,0.00,,2013-02-14 11:52:00,
2013-02-14 06:02:00,31.0,23.0,29.99,West,277,0.0,3.0,72,0.00,,,0.00,,2013-02-14 12:02:00,
2013-02-14 06:12:00,31.0,23.0,29.99,West,277,0.0,3.0,72,0.00,,,0.00,,2013-02-14 12:12:00,
2013-02-14 06:22:00,31.0,23.0,29.99,West,277,0.0,5.0,72,0.00,,,0.00,,2013-02-14 12:22:00,
2013-02-14 06:32:00,30.0,22.0,30.00,West,276,0.0,3.0,73,0.00,,,0.00,,2013-02-14 12:32:00,
2013-02-14 06:42:00,30.0,22.0,30.00,West,276,0.0,3.0,73,0.00,,,0.00,,2013-02-14 12:42:00,
2013-02-14 06:53:00,30.0,23.0,30.01,West,276,0.0,0.0,74,0.00,,,0.00,,2013-02-14 12:53:00,
2013-02-14 07:01:00,30.0,23.0,30.03,West,276,0.0,4.0,75,0.00,,,0.00,,2013-02-14 13:01:00,
2013-02-14 07:11:00,30.0,23.0,30.03,West,276,0.0,4.0,75,0.00,,,0.00,,2013-02-14 13:11:00,
2013-02-14 07:21:00,30.0,23.0,30.03,West,260,1.0,5.0,75,0.00,,,0.00,,2013-02-14 13:21:00,
2013-02-14 07:31:00,30.0,23.0,30.03,West,259,0.0,2.0,75,0.00,,,0.00,,2013-02-14 13:31:00,
2013-02-14 07:42:00,30.0,23.0,30.03,West,259,0.0,2.0,75,0.00,,,0.00,,2013-02-14 13:42:00,
2013-02-14 07:51:00,29.0,22.0,30.04,West,259,0.0,1.0,76,0.00,,,0.00,,2013-02-14 13:51:00,
2013-02-14 08:01:00,29.0,23.0,30.05,West,259,0.0,4.0,78,0.00,,,0.00,,2013-02-14 14:01:00,
2013-02-14 08:11:00,31.0,25.0,30.05,West,263,0.0,5.0,78,0.00,,,0.00,,2013-02-14 14:11:00,
2013-02-14 08:21:00,31.0,25.0,30.05,West,263,0.0,5.0,78,0.00,,,0.00,,2013-02-14 14:21:00,
2013-02-14 08:31:00,33.0,26.0,30.06,West,263,0.0,3.0,76,0.00,,,0.00,,2013-02-14 14:31:00,
2013-02-14 08:41:00,33.0,26.0,30.06,West,263,0.0,3.0,76,0.00,,,0.00,,2013-02-14 14:41:00,
2013-02-14 08:52:00,34.0,27.0,30.07,West,280,0.0,5.0,74,0.00,,,0.00,,2013-02-14 14:52:00,
2013-02-14 09:01:00,34.0,27.0,30.07,West,280,0.0,5.0,74,0.00,,,0.00,,2013-02-14 15:01:00,
2013-02-14 09:11:00,34.0,27.0,30.07,West,280,0.0,5.0,74,0.00,,,0.00,,2013-02-14 15:11:00,
2013-02-14 09:21:00,36.0,28.0,30.09,WNW,299,1.0,7.0,71,0.00,,,0.00,,2013-02-14 15:21:00,
2013-02-14 09:32:00,38.0,29.0,30.09,West,271,1.0,8.0,69,0.00,,,0.00,,2013-02-14 15:32:00,
2013-02-14 09:41:00,38.0,29.0,30.09,West,271,1.0,8.0,69,0.00,,,0.00,,2013-02-14 15:41:00,
2013-02-14 09:52:00,39.0,29.0,30.08,NW,319,2.0,9.0,67,0.00,,,0.00,,2013-02-14 15:52:00,
2013-02-14 10:01:00,40.0,29.0,30.08,NW,315,5.0,10.0,65,0.00,,,0.00,,2013-02-14 16:01:00,
2013-02-14 10:11:00,40.0,29.0,30.08,NW,315,5.0,10.0,65,0.00,,,0.00,,2013-02-14 16:11:00,
2013-02-14 10:21:00,40.0,29.0,30.08,NW,315,5.0,10.0,65,0.00,,,0.00,,2013-02-14 16:21:00,
2013-02-14 10:32:00,41.0,29.0,30.08,NW,315,6.0,11.0,63,0.00,,,0.00,,2013-02-14 16:32:00,
2013-02-14 10:42:00,41.0,29.0,30.08,NW,315,6.0,11.0,63,0.00,,,0.00,,2013-02-14 16:42:00,
2013-02-14 10:52:00,42.0,30.0,30.10,NW,321,4.0,14.0,61,0.00,,,0.00,,2013-02-14 16:52:00,
2013-02-14 11:01:00,43.0,30.0,30.11,WNW,295,3.0,14.0,60,0.00,,,0.00,,2013-02-14 17:01:00,
2013-02-14 11:11:00,44.0,30.0,30.11,North,355,3.0,11.0,57,0.00,,,0.00,,2013-02-14 17:11:00,
2013-02-14 11:21:00,44.0,30.0,30.11,North,355,3.0,11.0,57,0.00,,,0.00,,2013-02-14 17:21:00,
2013-02-14 11:32:00,44.0,30.0,30.11,North,355,4.0,13.0,57,0.00,,,0.00,,2013-02-14 17:32:00,
2013-02-14 11:42:00,44.0,30.0,30.11,North,355,4.0,13.0,57,0.00,,,0.00,,2013-02-14 17:42:00,
2013-02-14 11:52:00,44.0,30.0,30.11,NW,320,3.0,11.0,57,0.00,,,0.00,,2013-02-14 17:52:00,
2013-02-14 12:01:00,44.0,29.0,30.11,WNW,296,5.0,12.0,56,0.00,,,0.00,,2013-02-14 18:01:00,
2013-02-14 12:11:00,44.0,29.0,30.11,WNW,296,5.0,12.0,56,0.00,,,0.00,,2013-02-14 18:11:00,
2013-02-14 12:23:00,44.0,29.0,30.11,WSW,252,7.0,18.0,55,0.00,,,0.00,,2013-02-14 18:23:00,
2013-02-14 12:32:00,44.0,29.0,30.11,WSW,256,6.0,13.0,55,0.00,,,0.00,,2013-02-14 18:32:00,
2013-02-14 12:42:00,44.0,29.0,30.11,WSW,256,6.0,13.0,55,0.00,,,0.00,,2013-02-14 18:42:00,
2013-02-14 12:51:00,45.0,30.0,30.11,NW,306,3.0,13.0,55,0.00,,,0.00,,2013-02-14 18:51:00,
2013-02-14 13:02:00,46.0,30.0,30.11,WNW,290,2.0,10.0,54,0.00,,,0.00,,2013-02-14 19:02:00,
2013-02-14 13:11:00,46.0,30.0,30.11,WNW,290,2.0,10.0,54,0.00,,,0.00,,2013-02-14 19:11:00,
2013-02-14 13:21:00,46.0,30.0,30.11,NW,320,3.0,14.0,53,0.00,,,0.00,,2013-02-14 19:21:00,
2013-02-14 13:31:00,46.0,29.0,30.10,NW,319,1.0,8.0,52,0.00,,,0.00,,2013-02-14 19:31:00,
2013-02-14 13:42:00,46.0,29.0,30.10,NW,319,1.0,8.0,52,0.00,,,0.00,,2013-02-14 19:42:00,
2013-02-14 13:51:00,46.0,29.0,30.09,WNW,298,3.0,11.0,51,0.00,,,0.00,,2013-02-14 19:51:00,
2013-02-14 14:01:00,46.0,28.0,30.10,WNW,294,2.0,9.0,50,0.00,,,0.00,,2013-02-14 20:01:00,
2013-02-14 14:11:00,46.0,29.0,30.09,NW,310,1.0,12.0,51,0.00,,,0.00,,2013-02-14 20:11:00,
2013-02-14 14:21:00,46.0,29.0,30.09,NW,310,1.0,12.0,51,0.00,,,0.00,,2013-02-14 20:21:00,
2013-02-14 14:31:00,46.0,28.0,30.10,WNW,295,2.0,12.0,49,0.00,,,0.00,,2013-02-14 20:31:00,
2013-02-14 14:42:00,46.0,28.0,30.10,WNW,295,2.0,12.0,49,0.00,,,0.00,,2013-02-14 20:42:00,
2013-02-14 14:52:00,46.0,28.0,30.10,NNW,333,3.0,14.0,49,0.00,,,0.00,,2013-02-14 20:52:00,
2013-02-14 15:02:00,46.0,27.0,30.10,WNW,290,3.0,14.0,48,0.00,,,0.00,,2013-02-14 21:02:00,
2013-02-14 15:11:00,46.0,27.0,30.10,WNW,290,3.0,14.0,48,0.00,,,0.00,,2013-02-14 21:11:00,
2013-02-14 15:21:00,46.0,27.0,30.10,NW,323,2.0,14.0,48,0.00,,,0.00,,2013-02-14 21:21:00,
2013-02-14 15:31:00,47.0,29.0,30.11,NW,315,4.0,12.0,49,0.00,,,0.00,,2013-02-14 21:31:00,
2013-02-14 15:42:00,47.0,29.0,30.11,NW,315,4.0,12.0,49,0.00,,,0.00,,2013-02-14 21:42:00,
2013-02-14 15:51:00,46.0,27.0,30.11,West,264,3.0,16.0,48,0.00,,,0.00,,2013-02-14 21:51:00,
2013-02-14 16:02:00,46.0,28.0,30.12,NW,306,4.0,14.0,50,0.00,,,0.00,,2013-02-14 22:02:00,
2013-02-14 16:11:00,47.0,29.0,30.12,WSW,244,2.0,13.0,49,0.00,,,0.00,,2013-02-14 22:11:00,
2013-02-14 16:21:00,47.0,29.0,30.12,WSW,244,2.0,13.0,49,0.00,,,0.00,,2013-02-14 22:21:00,
2013-02-14 16:31:00,47.0,28.0,30.12,NW,306,2.0,11.0,48,0.00,,,0.00,,2013-02-14 22:31:00,
2013-02-14 16:42:00,47.0,28.0,30.12,NW,306,2.0,11.0,48,0.00,,,0.00,,2013-02-14 22:42:00,
2013-02-14 16:51:00,47.0,28.0,30.12,NW,304,2.0,10.0,48,0.00,,,0.00,,2013-02-14 22:51:00,
2013-02-14 17:01:00,46.0,27.0,30.13,WNW,287,1.0,12.0,48,0.00,,,0.00,,2013-02-14 23:01:00,
2013-02-14 17:11:00,46.0,27.0,30.13,WNW,287,1.0,12.0,48,0.00,,,0.00,,2013-02-14 23:11:00,
2013-02-14 17:21:00,46.0,27.0,30.13,WNW,295,3.0,12.0,47,0.00,,,0.00,,2013-02-14 23:21:00,
2013-02-14 17:32:00,46.0,27.0,30.14,WNW,287,4.0,12.0,48,0.00,,,0.00,,2013-02-14 23:32:00,
2013-02-14 17:41:00,46.0,27.0,30.14,WNW,287,4.0,12.0,48,0.00,,,0.00,,2013-02-14 23:41:00,
2013-02-14 17:52:00,46.0,26.0,30.15,NW,314,3.0,14.0,46,0.00,,,0.00,,2013-02-14 23:52:00,
2013-02-14 18:01:00,45.0,23.0,30.15,NW,326,4.0,15.0,42,0.00,,,0.00,,2013-02-15 00:01:00,
2013-02-14 18:11:00,45.0,23.0,30.15,NW,326,4.0,15.0,42,0.00,,,0.00,,2013-02-15 00:11:00,
2013-02-14 18:21:00,44.0,23.0,30.16,NW,309,4.0,13.0,43,0.00,,,0.00,,2013-02-15 00:21:00,
2013-02-14 18:32:00,44.0,23.0,30.16,WNW,299,3.0,12.0,44,0.00,,,0.00,,2013-02-15 00:32:00,
2013-02-14 18:42:00,44.0,23.0,30.16,WNW,299,3.0,12.0,44,0.00,,,0.00,,2013-02-15 00:42:00,
2013-02-14 18:51:00,44.0,23.0,30.16,WNW,299,3.0,12.0,44,0.00,,,0.00,,2013-02-15 00:51:00,
2013-02-14 19:02:00,42.0,23.0,30.18,NW,311,3.0,11.0,46,0.00,,,0.00,,2013-02-15 01:02:00,
2013-02-14 19:11:00,42.0,23.0,30.18,NW,311,3.0,11.0,46,0.00,,,0.00,,2013-02-15 01:11:00,
2013-02-14 19:21:00,42.0,24.0,30.18,NW,320,3.0,9.0,48,0.00,,,0.00,,2013-02-15 01:21:00,
2013-02-14 19:31:00,42.0,24.0,30.18,NW,310,0.0,10.0,49,0.00,,,0.00,,2013-02-15 01:31:00,
2013-02-14 19:41:00,42.0,24.0,30.18,NW,310,0.0,10.0,49,0.00,,,0.00,,2013-02-15 01:41:00,
2013-02-14 19:51:00,41.0,24.0,30.18,NW,311,0.0,8.0,50,0.00,,,0.00,,2013-02-15 01:51:00,
2013-02-14 20:01:00,40.0,23.0,30.19,NW,313,1.0,6.0,51,0.00,,,0.00,,2013-02-15 02:01:00,
2013-02-14 20:11:00,40.0,23.0,30.19,NW,313,1.0,6.0,51,0.00,,,0.00,,2013-02-15 02:11:00,
2013-02-14 20:21:00,40.0,24.0,30.19,NW,308,0.0,5.0,52,0.00,,,0.00,,2013-02-15 02:21:00,
2013-02-14 20:31:00,39.0,23.0,30.20,WNW,300,0.0,7.0,53,0.00,,,0.00,,2013-02-15 02:31:00,
2013-02-14 20:41:00,39.0,23.0,30.20,WNW,300,0.0,7.0,53,0.00,,,0.00,,2013-02-15 02:41:00,
2013-02-14 20:52:00,39.0,24.0,30.20,NW,309,0.0,5.0,54,0.00,,,0.00,,2013-02-15 02:52:00,
2013-02-14 21:02:00,39.0,24.0,30.20,NW,309,0.0,6.0,55,0.00,,,0.00,,2013-02-15 03:02:00,
2013-02-14 21:11:00,39.0,24.0,30.20,NW,309,0.0,6.0,55,0.00,,,0.00,,2013-02-15 03:11:00,
2013-02-14 21:22:00,38.0,23.0,30.20,NNW,337,3.0,7.0,55,0.00,,,0.00,,2013-02-15 03:22:00,
2013-02-14 21:32:00,38.0,23.0,30.21,NNW,336,0.0,7.0,55,0.00,,,0.00,,2013-02-15 03:32:00,
2013-02-14 21:42:00,38.0,23.0,30.21,NNW,336,0.0,7.0,55,0.00,,,0.00,,2013-02-15 03:42:00,
2013-02-14 21:51:00,37.0,23.0,30.22,WNW,299,0.0,6.0,56,0.00,,,0.00,,2013-02-15 03:51:00,
2013-02-14 22:01:00,37.0,22.0,30.22,WNW,297,3.0,11.0,54,0.00,,,0.00,,2013-02-15 04:01:00,
2013-02-14 22:11:00,37.0,22.0,30.22,WNW,297,3.0,11.0,54,0.00,,,0.00,,2013-02-15 04:11:00,
2013-02-14 22:21:00,37.0,21.0,30.22,NW,310,1.0,10.0,53,0.00,,,0.00,,2013-02-15 04:21:00,
2013-02-14 22:32:00,37.0,21.0,30.23,WNW,292,3.0,10.0,52,0.00,,,0.00,,2013-02-15 04:32:00,
2013-02-14 22:42:00,37.0,21.0,30.23,WNW,292,3.0,10.0,52,0.00,,,0.00,,2013-02-15 04:42:00,
2013-02-14 22:52:00,37.0,21.0,30.23,WNW,301,2.0,9.0,53,0.00,,,0.00,,2013-02-15 04:52:00,
2013-02-14 23:02:00,36.0,21.0,30.23,NW,306,0.0,9.0,54,0.00,,,0.00,,2013-02-15 05:02:00,
2013-02-14 23:12:00,36.0,21.0,30.23,NW,306,0.0,9.0,54,0.00,,,0.00,,2013-02-15 05:12:00,
2013-02-14 23:22:00,36.0,21.0,30.24,WNW,288,2.0,11.0,55,0.00,,,0.00,,2013-02-15 05:22:00,
2013-02-14 23:32:00,35.0,21.0,30.25,WNW,286,3.0,10.0,56,0.00,,,0.00,,2013-02-15 05:32:00,
2013-02-14 23:41:00,35.0,21.0,30.25,WNW,286,3.0,10.0,56,0.00,,,0.00,,2013-02-15 05:41:00,
2013-02-14 23:52:00,35.0,22.0,30.26,WNW,297,4.0,16.0,58,0.00,,,0.00,,2013-02-15 05:52:00,